Regional Weather Roundup
Issued by NWS

Home | Current Version | Previous Version | Graphics & Text | Print | Product List | Glossary On
Versions: 1 2 3 4 5 6 7 8 9 10 11 12 13 14 15 16 17 18 19 20 21 22 23 24 25 26 27 28 29 30 31 32 33 34 35 36 37 38 39 40 41 42 43 44 45 46 47 48 49 50
132
ASUS43 KMPX 060810
RWRMN
WEATHER ROUNDUP FOR MINNESOTA
NATIONAL WEATHER SERVICE TWIN CITIES/CHANHASSEN MN
200 AM CST SAT FEB 06 2016


NOTE: "FAIR" INDICATES FEW OR NO CLOUDS BELOW 12,000 FEET WITH NO
SIGNIFICANT WEATHER AND/OR OBSTRUCTIONS TO VISIBILITY. N/A MEANS
CURRENT SKY AND/OR WEATHER CONDITIONS ARE NOT AVAILABLE.

MNZ060>063-068>070-060900-
   Twin Cities Metro

CITY           SKY/WX    TMP DP  RH WIND       PRES   REMARKS
TWIN CITIES    CLOUDY    26  22  84 SW6       30.16S FOG     WCI  19
ST PAUL        CLOUDY    26  22  84 SW7       30.17F WCI  18
CRYSTAL        CLOUDY    26  22  84 W9        30.14S WCI  17
BLAINE         CLOUDY    27  25  93 SW5       30.14S WCI  21
LAKEVILLE      CLOUDY    25  25 100 W6        30.16S WCI  18
EDEN PRAIRIE   CLOUDY    26  21  81 W6        30.15F HAZE    WCI  19
SOUTH ST PAUL  CLOUDY    27  23  83 W5        30.16R WCI  22
LAKE ELMO      CLOUDY    28  23  80 W10       30.16S WCI  19
$$
MNZ001>005-007-008-013>017-022>024-027-028-060900-
   Northwest Minnesota

CITY           SKY/WX    TMP DP  RH WIND       PRES   REMARKS
BEMIDJI        PTCLDY    16  15  93 CALM      30.02S
HALLOCK        CLOUDY    19  18  93 S7        29.97F WCI  10
ROSEAU         CLOUDY    18  14  86 S6        29.99F WCI   9
WARROAD        PTCLDY    16  12  86 CALM      30.00F
THIEF RVR FALL PTCLDY    19  16  86 S9        30.00F WCI   9
CROOKSTON      PTCLDY    21  19  93 S12       30.01F WCI   9
FOSSTON        CLOUDY    16  16 100 S5        30.02F WCI   9
DETROIT LAKES  CLOUDY    21  19  93 S5        30.05F FOG     WCI  15
MOORHEAD       CLOUDY    16  16 100 S10       30.05F WCI   3
PARK RAPIDS    CLOUDY    20  18  92 S7        30.03F FOG     WCI  11
MAHNOMEN       FAIR      19  18  94 S8        30.02F WCI   9
$$
MNZ006-009>011-018-025>026-060900-
   North Central Minnesota

CITY           SKY/WX    TMP DP  RH WIND       PRES   REMARKS
BAUDETTE       CLOUDY    19  13  77 S5        29.99F WCI  12
FLAG ISLAND    CLOUDY    18  16  93 SE3       29.99F
INTL FALLS     CLOUDY    20  15  81 SW5       30.01F WCI  13
WASKISH        CLOUDY    16  12  86 CALM      30.01F
LONGVILLE      CLOUDY    18  18 100 SW3       30.06S
GRAND RAPIDS   CLOUDY    18  12  79 CALM      30.05S
CRANE LAKE     CLOUDY    19  16  86 S2        30.04F
ORR            CLOUDY    19  16  86 CALM      30.00
COOK           CLOUDY    19  16  86 SW7       30.04S WCI  10
WALKER         FAIR      17  16  93 SW3       30.03F
$$
MNZ012-019>021-037-060900-
   Northeast Minnesota

CITY           SKY/WX    TMP DP  RH WIND       PRES   REMARKS
DULUTH         CLOUDY    19  13  77 W9        30.04S WCI   8
ELY            CLOUDY    19  16  86 W8        30.01S WCI   9
HIBBING        CLOUDY    19  16  88 SW3       30.04S
EVELETH        CLOUDY    21  18  86 W6        30.05R WCI  14
DULUTH HARBOR  CLOUDY    25  18  74 SW10      30.10S WCI  15
TWO HARBORS    CLOUDY    19  14  79 SW6       30.03S WCI  11
SILVER BAY     CLOUDY    19  14  79 CALM      30.02S
GRAND MARAIS     N/A     24  17  74 W3        30.04S
G MARAIS ARPRT CLOUDY    19  12  73 W6        29.96F WCI  11
$$
MNZ029>031-032-039>041-046>048-054>057-064-060900-
   West Central Minnesota

CITY           SKY/WX    TMP DP  RH WIND       PRES   REMARKS
FERGUS FALLS   CLOUDY    14  12  92 S5        30.11F WCI   6
WHEATON        CLOUDY    21  19  93 S8        30.11F WCI  12
MORRIS         FOG       10   9  92 S3        30.10S VSB 1/2
ALEXANDRIA     CLOUDY    17  15  92 S5        30.09F FOG     WCI  10
ELBOW LAKE     FAIR      13  11  93 E5        30.09F WCI   5
WADENA         FOG       18  18 100 S5        30.06F VSB 3/4 WCI  11
GLENWOOD       FOG       19  18  93 SW6       30.10F VSB 1/4 WCI  11
APPLETON       CLOUDY    16  12  86 CALM      30.12F
BENSON         CLOUDY    16  12  86 CALM      30.12F FOG
ORTONVILLE     CLOUDY    18  16  93 S3        30.11F
MADISON        CLOUDY    16  12  86 SW6       30.13F WCI   7
WILLMAR        FAIR      19  18  93 SW6       30.13F FOG     WCI  11
$$
MNZ033>034-036-042>043-049>051-058-059-060900-
   Central Minnesota

CITY           SKY/WX    TMP DP  RH WIND       PRES   REMARKS
ST CLOUD       CLOUDY    24  20  84 W8        30.12S WCI  15
SAUK CENTRE    FOG       23  23  99 SW8       30.10F VSB 3/4 WCI  14
PAYNESVILLE    CLOUDY    26  24  96 W7        30.12F WCI  18
AITKIN         CLOUDY    25  18  74 SW6       30.06F WCI  18
PINE RIVER     CLOUDY    19  18  93 CALM      30.10S
BRAINERD       PTCLDY    19  16  88 SW7       30.08F WCI  10
STAPLES        CLOUDY    19  18  93 S5        30.08F FOG     WCI  13
LONG PRAIRIE   CLOUDY    23  23 100 SW7       30.10S FOG     WCI  15
LITTLE FALLS   CLOUDY    23  19  86 SW3       30.11F
LITCHFIELD     CLOUDY    27  25  93 SW3       30.13F
BUFFALO        CLOUDY    25  22  87 SW7       30.15S WCI  17
MAPLE LAKE     CLOUDY    26  23  89 W3        30.14F
$$
MNZ037-044-045-052-053-060900-
   East Central Minnesota

CITY           SKY/WX    TMP DP  RH WIND       PRES   REMARKS
PRINCETON      CLOUDY    27  21  80 W5        30.12F WCI  21
MORA           CLOUDY    25  19  80 W3        30.13F
CAMBRIDGE      CLOUDY    27  19  74 CALM      30.11F
RUSH CITY      CLOUDY    25  22  87 SW3       30.13S
MOOSE LAKE     CLOUDY    23  18  80 SW5       30.07S WCI  17
HINCKLEY       CLOUDY    27  23  86 SW6       30.11S WCI  20
CLOQUET        CLOUDY    21  16  79 SW6       30.06S WCI  14
MCGREGOR       CLOUDY    23  19  86 SW3       30.08S
$$
MNZ071>073-080-081-089-090-097-098-060900-
   Southwest Minnesota

CITY           SKY/WX    TMP DP  RH WIND       PRES   REMARKS
MONTEVIDEO     CLOUDY    18  16  93 W7        30.14F WCI   8
GRANITE FALLS  CLOUDY    18  16  92 S8        30.15F WCI   8
CANBY          CLOUDY    26  23  89 SW12      30.14F WCI  15
MARSHALL         N/A     21  19  92 MISG        N/A
REDWOOD FALLS  CLEAR     18  16  92 SW8       30.15F WCI   8
OLIVIA         CLEAR     18  16  93 SW7       30.14F WCI   8
PIPESTONE        N/A     25  19  80 W3        30.15F
WINDOM         FOG       19  18  93 W9        30.16F VSB 1/4 WCI   9
WORTHINGTON    CLOUDY    25  21  86 W10       30.17F VSB 1/2 WCI  15
JACKSON        CLEAR     23  21  93 SW7       30.16F FOG     WCI  15
TRACY          CLEAR     22  20  94 SW10      30.15S WCI  11
SLAYTON        FOG       23  23 100 W9        30.15F VSB 1/2 WCI  13
$$
MNZ065>067-074>077-082>085-091>093-060900-
   South Central Minnesota

CITY           SKY/WX    TMP DP  RH WIND       PRES   REMARKS
MANKATO        CLOUDY    27  21  80 W9        30.17S WCI  17
NEW ULM        CLEAR     21  19  93 SW3       30.16F
ST JAMES       CLEAR     21  21 100 SW6       30.18F WCI  14
FAIRMONT       CLOUDY    27  21  80 W7        30.17F WCI  19
GLENCOE        CLOUDY    27  25  91 W5        30.15S WCI  22
FARIBAULT      CLOUDY    27  25  93 SW6       30.16F WCI  20
OWATONNA       CLOUDY    27  23  86 SW10      30.15F WCI  17
WASECA         CLOUDY    28  25  86 W10       30.18S WCI  19
ALBERT LEA     CLOUDY    27  27 100 W6        30.17S FOG     WCI  20
$$
MNZ078>079-086>088-094>096-060900-
   Southeast Minnesota

CITY           SKY/WX    TMP DP  RH WIND       PRES   REMARKS
ROCHESTER      CLOUDY    24  23  96 SW15      30.15F FOG     WCI  11
RED WING       CLOUDY    27  23  86 SW6       30.16S FOG     WCI  20
STANTON        CLOUDY    28  24  85 SW8       30.15F WCI  20
DODGE CENTER   CLOUDY    25  25 100 SW10      30.15S FOG     WCI  15
WINONA         CLOUDY    30  27  86 SW5       30.20F WCI  25
AUSTIN         CLOUDY    25  25 100 SW7       30.17S FOG     WCI  17
PRESTON        CLOUDY    24  23  95 SW8       30.17F FOG     WCI  15
$$
ABBREVIATIONS USED IN REMARKS
   TC - TEMPERATURES IN CELSIUS
  WCI - WIND CHILL INDEX
   HX - HEAT INDEX
  VSB - VISIBILITY
$$




USA.gov is the U.S. government's official web portal to all federal, state and local government web resources and services.